Weather History for KIPL - March, 2012

Change the Weather History Date:

Monday, March 5, 2012

  Actual Average Record
Temperature  
Mean Temperature 66 °F -  
Max Temperature 84 °F 74 °F 94 °F (1972)
Min Temperature 48 °F 49 °F 37 °F (2002)
Cooling Degree Days 1    
Growing Degree Days 16 (Base 50)    
Moisture  
Dew Point 29 °F    
Average Humidity 26    
Maximum Humidity 41    
Minimum Humidity 12    
Precipitation  
Precipitation 0.00 in - - ()
Sea Level Pressure  
Sea Level Pressure 29.94 in    
Wind  
Wind Speed 4 mph (SSW)    
Max Wind Speed 7 mph    
Max Gust Speed -    
Visibility 10 miles    
Events      
Averages and records for this station are not official NWS values.
T = Trace of Precipitation, MM = Missing Value Source: NWS Daily Summary

Daily Weather History Graph

Daily Weather History Graph

Search for Another Location

Airport or City:

Trip Planner

Search our weather history database for the weather conditions in past years. The results will help you decide how hot, cold, wet, or windy it might be!

Date:

Astronomy

Mar. 05, 2012 Rise Set
Actual Time 6:04 AM PST 5:43 PM PST
Civil Twilight 5:39 AM PST 6:07 PM PST
Nautical Twilight 5:11 AM PST 6:36 PM PST
Astronomical Twilight 4:42 AM PST 7:05 PM PST
Moon 3:12 PM PST (3/5) 3:58 AM PST (3/5)
Length of Visible Light 12h 27m
Length of Day
11h 38m
Waxing Gibbous, 91% of the Moon is Illuminated
Mar 5
Waxing Gibbous
Mar 8
Full
Mar 14
Last Quarter
Mar 22
New
Mar 30
First Quarter

Hourly Weather History & Observations

Time (PST) Temp. Dew Point Humidity Pressure Visibility Wind Dir Wind Speed Gust Speed Precip Events Conditions
12:53 AM 52.0 °F 27.0 °F 38% 30.00 in 10.0 mi West 6.9 mph - N/A   Clear
1:53 AM 53.1 °F 26.1 °F 35% 29.99 in 10.0 mi WSW 5.8 mph - N/A   Clear
2:53 AM 51.1 °F 25.0 °F 36% 29.98 in 10.0 mi West 6.9 mph - N/A   Clear
3:53 AM 50.0 °F 27.0 °F 41% 29.97 in 10.0 mi West 5.8 mph - N/A   Clear
4:53 AM 48.9 °F 25.0 °F 39% 29.98 in 10.0 mi Calm Calm - N/A   Clear
5:53 AM 50.0 °F 24.1 °F 36% 29.99 in 10.0 mi Calm Calm - N/A   Clear
6:53 AM 52.0 °F 26.1 °F 37% 30.01 in 10.0 mi Calm Calm - N/A   Clear
7:53 AM 59.0 °F 19.9 °F 22% 30.02 in 10.0 mi Calm Calm - N/A   Clear
8:53 AM 63.0 °F 32.0 °F 31% 30.03 in 10.0 mi West 3.5 mph - N/A   Clear
9:53 AM 70.0 °F 34.0 °F 27% 30.03 in 10.0 mi Calm Calm - N/A   Clear
10:53 AM 77.0 °F 30.0 °F 18% 30.02 in 10.0 mi Variable 3.5 mph - N/A   Clear
11:53 AM 79.0 °F 30.9 °F 17% 29.99 in 10.0 mi Variable 3.5 mph - N/A   Clear
12:53 PM 81.0 °F 27.0 °F 14% 29.96 in 10.0 mi Variable 3.5 mph - N/A   Clear
1:53 PM 84.0 °F 28.0 °F 13% 29.92 in 10.0 mi Variable 4.6 mph - N/A   Clear
2:53 PM 84.0 °F 27.0 °F 13% 29.90 in 10.0 mi ENE 4.6 mph - N/A   Clear
3:53 PM 84.0 °F 25.0 °F 12% 29.89 in 10.0 mi East 5.8 mph - N/A   Clear
4:53 PM 82.9 °F 24.1 °F 12% 29.88 in 10.0 mi East 4.6 mph - N/A   Clear
5:53 PM 79.0 °F 30.9 °F 17% 29.88 in 10.0 mi Calm Calm - N/A   Clear
6:53 PM 71.1 °F 30.9 °F 23% 29.88 in 10.0 mi Calm Calm - N/A   Clear
7:53 PM 70.0 °F 32.0 °F 25% 29.88 in 10.0 mi Calm Calm - N/A   Clear
8:53 PM 66.0 °F 33.1 °F 29% 29.88 in 10.0 mi SE 3.5 mph - N/A   Clear
9:53 PM 63.0 °F 35.1 °F 35% 29.88 in 10.0 mi Calm Calm - N/A   Clear
10:53 PM 64.0 °F 33.1 °F 31% 29.86 in 10.0 mi Calm Calm - N/A   Clear
11:53 PM 62.1 °F 32.0 °F 32% 29.85 in 10.0 mi ESE 5.8 mph - N/A   Clear